FW8707 Weather Reports


Display with metric or nautical units.
time (UTC)temp
F
wind
direction
speed
MPH
gust
MPH
rain 1hr
in
rain 24hr
in
rain mn
in
humidity
%
barometer
mb
20220927213528 77 0 1.0 4.0 0.00 0.00 0.00 33 1024.5
20220927213032 77 247 0.0 4.0 0.00 0.00 0.00 32 1024.6
20220927212542 76 0 0.0 5.0 0.00 0.00 0.00 32 1024.7
20220927212028 76 57 2.0 5.0 0.00 0.00 0.00 34 1024.9
20220927211549 75 53 1.0 5.0 0.00 0.00 0.00 36 1025.1
20220927211028 74 88 0.0 5.0 0.00 0.00 0.00 37 1025.5
20220927210530 72 323 2.0 8.0 0.00 0.00 0.00 42 1025.7
20220927210053 71 42 2.0 8.0 0.00 0.00 0.00 42 1026.0
20220927205530 69 258 1.0 10.0 0.00 0.00 0.00 45 1026.3
20220927205028 68 0 2.0 10.0 0.00 0.00 0.00 44 1026.2
20220927204535 68 274 2.0 6.0 0.00 0.00 0.00 49 1026.4
20220927204028 68 53 3.0 6.0 0.00 0.00 0.00 47 1026.1
20220927203530 68 0 0.0 6.0 0.00 0.00 0.00 47 1026.4
20220927203045 68 0 0.0 8.0 0.00 0.00 0.00 46 1026.4
20220927202527 68 263 3.0 8.0 0.00 0.00 0.00 45 1026.5
20220927202028 68 351 2.0 6.0 0.00 0.00 0.00 45 1026.2
20220927201538 69 158 0.0 3.0 0.00 0.00 0.00 46 1025.8
20220927201026 69 135 0.0 3.0 0.00 0.00 0.00 47 1026.0
20220927200531 70 73 1.0 3.0 0.00 0.00 0.00 45 1026.1
20220927200035 70 112 0.0 2.0 0.00 0.00 0.00 41 1026.0
20220927195528 70 0 0.0 2.0 0.00 0.00 0.00 42 1026.0
20220927195027 70 190 0.0 2.0 0.00 0.00 0.00 41 1026.0
20220927194610 71 199 0.0 1.0 0.00 0.00 0.00 40 1026.2
20220927194032 71 0 0.0 1.0 0.00 0.00 0.00 41 1026.5
20220927193528 71 0 0.0 2.0 0.00 0.00 0.00 39 1026.4
20220927193040 72 199 0.0 2.0 0.00 0.00 0.00 37 1026.4
20220927192528 72 0 0.0 2.0 0.00 0.00 0.00 35 1026.6
20220927192028 73 0 0.0 2.0 0.00 0.00 0.00 35 1026.5
20220927191549 73 0 0.0 2.0 0.00 0.00 0.00 36 1026.4
20220927191028 73 0 0.0 3.0 0.00 0.00 0.00 35 1026.4
20220927190526 73 0 1.0 4.0 0.00 0.00 0.00 35 1026.3
20220927190041 73 66 1.0 4.0 0.00 0.00 0.00 35 1026.2
20220927185532 74 69 1.0 5.0 0.00 0.00 0.00 37 1026.0
20220927185027 75 74 1.0 5.0 0.00 0.00 0.00 34 1026.1
20220927184559 76 77 3.0 5.0 0.00 0.00 0.00 33 1026.1
20220927184033 76 0 1.0 7.0 0.00 0.00 0.00 33 1026.0
20220927183530 76 212 2.0 8.0 0.00 0.00 0.00 35 1026.0
20220927183032 76 81 2.0 8.0 0.00 0.00 0.00 33 1026.0
20220927182528 77 64 3.0 8.0 0.00 0.00 0.00 35 1026.0
20220927182028 76 5 1.0 6.0 0.00 0.00 0.00 35 1026.0
20220927181551 76 65 2.0 7.0 0.00 0.00 0.00 38 1026.0
20220927181028 76 70 1.0 7.0 0.00 0.00 0.00 33 1026.1
20220927180526 76 58 2.0 5.0 0.00 0.00 0.00 33 1026.2
20220927180102 76 64 1.0 4.0 0.00 0.00 0.00 34 1026.2
20220927175528 76 324 1.0 4.0 0.00 0.00 0.00 34 1026.4
20220927175028 76 28 2.0 5.0 0.00 0.00 0.00 32 1026.3
20220927174535 75 49 1.0 5.0 0.00 0.00 0.00 35 1026.4
20220927174028 75 74 1.0 4.0 0.00 0.00 0.00 34 1026.5
20220927173529 74 350 2.0 5.0 0.00 0.00 0.00 34 1026.5
20220927173035 74 71 1.0 7.0 0.00 0.00 0.00 35 1026.4
20220927172533 73 53 2.0 7.0 0.00 0.00 0.00 33 1026.4
20220927172029 74 57 3.0 5.0 0.00 0.00 0.00 35 1026.4
20220927171537 73 62 2.0 5.0 0.00 0.00 0.00 35 1026.6
20220927171029 73 78 1.0 5.0 0.00 0.00 0.00 35 1026.7
20220927170528 73 31 2.0 5.0 0.00 0.00 0.00 38 1026.6
20220927170035 73 65 1.0 4.0 0.00 0.00 0.00 37 1026.7
20220927165530 72 94 0.0 8.0 0.00 0.00 0.00 37 1026.7
20220927165030 72 161 1.0 8.0 0.00 0.00 0.00 38 1026.8
20220927164534 72 62 2.0 4.0 0.00 0.00 0.00 39 1026.8
20220927164028 71 0 1.0 5.0 0.00 0.00 0.00 39 1026.9
20220927163528 70 69 2.0 5.0 0.00 0.00 0.00 41 1026.9
20220927163040 70 92 1.0 5.0 0.00 0.00 0.00 43 1026.9
20220927162528 69 105 1.0 4.0 0.00 0.00 0.00 43 1027.0
20220927162027 68 0 1.0 4.0 0.00 0.00 0.00 43 1026.8
20220927161543 68 0 1.0 5.0 0.00 0.00 0.00 44 1026.9
20220927161026 68 66 3.0 5.0 0.00 0.00 0.00 44 1026.8
20220927160528 67 42 2.0 7.0 0.00 0.00 0.00 45 1026.9
20220927160037 67 59 3.0 7.0 0.00 0.00 0.00 44 1026.9
20220927155527 67 61 2.0 6.0 0.00 0.00 0.00 47 1026.9
20220927155027 66 65 2.0 5.0 0.00 0.00 0.00 50 1026.8
20220927154602 65 86 1.0 4.0 0.00 0.00 0.00 51 1026.9
20220927154029 64 0 0.0 4.0 0.00 0.00 0.00 53 1026.8
20220927153530 63 70 1.0 4.0 0.00 0.00 0.00 56 1026.8
20220927153038 62 57 0.0 3.0 0.00 0.00 0.00 56 1026.9
20220927152528 61 74 1.0 4.0 0.00 0.00 0.00 57 1026.9
20220927152032 60 77 1.0 4.0 0.00 0.00 0.00 57 1026.7
20220927151554 59 61 1.0 3.0 0.00 0.00 0.00 60 1026.7
20220927151025 58 69 2.0 3.0 0.00 0.00 0.00 61 1026.7
20220927150530 58 73 1.0 4.0 0.00 0.00 0.00 61 1026.8
20220927150042 57 74 1.0 4.0 0.00 0.00 0.00 63 1026.7
20220927145527 56 68 1.0 3.0 0.00 0.00 0.00 64 1026.7
20220927145029 56 65 1.0 3.0 0.00 0.00 0.00 63 1026.7
20220927144532 56 74 0.0 3.0 0.00 0.00 0.00 64 1026.7
20220927144027 56 69 1.0 3.0 0.00 0.00 0.00 64 1026.7
20220927143527 56 0 1.0 3.0 0.00 0.00 0.00 65 1026.7
20220927143053 56 60 0.0 2.0 0.00 0.00 0.00 64 1026.6
20220927142527 55 0 0.0 2.0 0.00 0.00 0.00 61 1026.6
20220927142028 55 286 0.0 2.0 0.00 0.00 0.00 58 1026.5
20220927141546 55 288 0.0 3.0 0.00 0.00 0.00 57 1026.5
20220927141027 54 0 0.0 3.0 0.00 0.00 0.00 57 1026.5
20220927140526 54 255 0.0 3.0 0.00 0.00 0.00 57 1026.6
20220927140036 54 0 0.0 4.0 0.00 0.00 0.00 57 1026.6
20220927135529 54 256 1.0 4.0 0.00 0.00 0.00 57 1026.6
20220927135031 54 262 2.0 5.0 0.00 0.00 0.00 56 1026.6
20220927134539 54 244 2.0 5.0 0.00 0.00 0.00 57 1026.6
20220927134029 54 259 1.0 5.0 0.00 0.00 0.00 57 1026.6
20220927133530 53 255 0.0 5.0 0.00 0.00 0.00 58 1026.4
20220927133039 53 250 1.0 4.0 0.00 0.00 0.00 58 1026.4
20220927132529 53 272 1.0 4.0 0.00 0.00 0.00 58 1026.4
20220927132027 53 250 1.0 6.0 0.00 0.00 0.00 58 1026.4
20220927131537 53 242 1.0 6.0 0.00 0.00 0.00 58 1026.4
20220927131028 53 273 2.0 5.0 0.00 0.00 0.00 57 1026.4
20220927130528 53 0 0.0 6.0 0.00 0.00 0.00 57 1026.3
20220927130041 53 268 3.0 7.0 0.00 0.00 0.00 57 1026.3
20220927125526 53 265 3.0 8.0 0.00 0.00 0.00 56 1026.3
20220927125028 53 281 4.0 8.0 0.00 0.00 0.00 56 1026.2
20220927124554 53 269 4.0 9.0 0.00 0.00 0.00 56 1026.2
20220927124032 53 244 4.0 9.0 0.00 0.00 0.00 56 1026.2
20220927123527 53 269 4.0 9.0 0.00 0.00 0.00 56 1026.2
20220927123041 53 250 4.0 10.0 0.00 0.00 0.00 56 1026.0
20220927122529 53 277 4.0 10.0 0.00 0.00 0.00 56 1026.1
20220927122026 53 275 4.0 8.0 0.00 0.00 0.00 56 1026.1
20220927121539 54 267 4.0 8.0 0.00 0.00 0.00 56 1026.0
20220927121027 54 265 3.0 7.0 0.00 0.00 0.00 56 1026.0
20220927120528 54 263 3.0 7.0 0.00 0.00 0.00 56 1026.0
20220927120040 54 273 3.0 8.0 0.00 0.00 0.00 55 1026.0
20220927115529 54 270 3.0 8.0 0.00 0.00 0.00 55 1025.9
20220927115029 54 279 4.0 8.0 0.00 0.00 0.00 54 1026.0
20220927114555 54 253 3.0 7.0 0.00 0.00 0.00 54 1025.9
20220927114027 54 278 2.0 8.0 0.00 0.00 0.00 54 1026.0
20220927113529 55 278 4.0 8.0 0.00 0.00 0.00 54 1026.0
20220927113031 55 263 3.0 7.0 0.00 0.00 0.00 53 1025.9
20220927112527 55 269 3.0 8.0 0.00 0.00 0.00 53 1026.0
20220927112029 55 277 4.0 8.0 0.00 0.00 0.00 53 1025.9
20220927111537 55 258 4.0 8.0 0.00 0.00 0.00 53 1025.8
20220927111032 55 270 4.0 9.0 0.00 0.00 0.00 53 1025.9
20220927110526 55 269 4.0 10.0 0.00 0.00 0.00 53 1025.8
20220927110036 55 268 3.0 10.0 0.00 0.00 0.00 53 1025.7
20220927105528 55 274 4.0 11.0 0.00 0.00 0.00 53 1025.8
20220927105028 55 242 4.0 11.0 0.00 0.00 0.00 52 1025.8
20220927104546 55 271 3.0 8.0 0.00 0.00 0.00 52 1025.8
20220927104029 55 251 5.0 8.0 0.00 0.00 0.00 52 1025.7
20220927103531 56 267 5.0 8.0 0.00 0.00 0.00 52 1025.7
20220927103033 56 275 4.0 8.0 0.00 0.00 0.00 52 1025.6
20220927102529 56 284 4.0 8.0 0.00 0.00 0.00 51 1025.7
20220927102030 56 259 5.0 8.0 0.00 0.00 0.00 51 1025.7
20220927101538 56 270 4.0 9.0 0.00 0.00 0.00 51 1025.6
20220927101028 56 278 4.0 9.0 0.00 0.00 0.00 50 1025.6
20220927100529 56 279 4.0 11.0 0.00 0.00 0.00 50 1025.7
20220927100036 56 276 5.0 11.0 0.00 0.00 0.00 50 1025.7
20220927095527 57 282 4.0 8.0 0.00 0.00 0.00 50 1025.6
20220927095028 57 268 4.0 11.0 0.00 0.00 0.00 50 1025.6
20220927094537 57 256 6.0 11.0 0.00 0.00 0.00 50 1025.6
20220927094028 57 280 5.0 9.0 0.00 0.00 0.00 50 1025.7
20220927093527 57 257 5.0 9.0 0.00 0.00 0.00 50 1025.7
20220927093043 57 252 4.0 8.0 0.00 0.00 0.00 49 1025.7
20220927092528 57 265 4.0 9.0 0.00 0.00 0.00 49 1025.8
20220927092030 57 262 4.0 9.0 0.00 0.00 0.00 49 1025.8
20220927091533 57 273 4.0 9.0 0.00 0.00 0.00 49 1025.7
20220927091026 57 254 3.0 10.0 0.00 0.00 0.00 49 1025.9
20220927090527 57 259 5.0 10.0 0.00 0.00 0.00 49 1025.9
20220927090058 57 262 5.0 9.0 0.00 0.00 0.00 49 1025.9
20220927085528 57 241 4.0 9.0 0.00 0.00 0.00 49 1025.9
20220927085035 57 285 5.0 9.0 0.00 0.00 0.00 49 1025.9
20220927084536 57 253 5.0 9.0 0.00 0.00 0.00 49 1025.9
20220927084028 57 267 4.0 9.0 0.00 0.00 0.00 49 1025.8
20220927083531 57 277 4.0 9.0 0.00 0.00 0.00 49 1025.9
20220927083044 57 264 4.0 9.0 0.00 0.00 0.00 50 1026.1
20220927082528 57 254 4.0 9.0 0.00 0.00 0.00 50 1026.1
20220927082028 57 263 5.0 8.0 0.00 0.00 0.00 50 1026.1
20220927081537 57 231 4.0 8.0 0.00 0.00 0.00 50 1026.0
20220927081027 57 279 4.0 8.0 0.00 0.00 0.00 49 1026.2
20220927080528 58 257 3.0 8.0 0.00 0.00 0.00 49 1026.2
20220927080035 58 259 3.0 8.0 0.00 0.00 0.00 49 1026.2
20220927075527 58 269 4.0 8.0 0.00 0.00 0.00 49 1026.1
20220927075028 58 271 3.0 8.0 0.00 0.00 0.00 49 1026.2
20220927074532 58 256 4.0 8.0 0.00 0.00 0.00 48 1026.2
20220927074027 58 286 4.0 9.0 0.00 0.00 0.00 48 1026.2
20220927073541 58 280 4.0 9.0 0.00 0.00 0.00 48 1026.2
20220927073038 58 278 4.0 8.0 0.00 0.00 0.00 48 1026.1
20220927072532 58 286 3.0 7.0 0.00 0.00 0.00 48 1026.1
20220927072231 58 279 3.0 9.0 0.00 0.00 0.00 48 1026.2
20220927071537 58 239 4.0 10.0 0.00 0.00 0.00 48 1026.2
20220927071028 58 273 5.0 10.0 0.00 0.00 0.00 48 1026.0
20220927070528 58 255 4.0 10.0 0.00 0.00 0.00 48 1026.1
20220927070034 58 257 4.0 8.0 0.00 0.00 0.00 48 1026.1
20220927065529 58 269 2.0 8.0 0.00 0.00 0.00 49 1026.1
20220927065028 59 267 2.0 7.0 0.00 0.00 0.00 48 1026.3
20220927064540 59 257 2.0 7.0 0.00 0.00 0.00 48 1026.2
20220927064036 59 262 2.0 7.0 0.00 0.00 0.00 48 1026.3
20220927063530 59 241 2.0 7.0 0.00 0.00 0.00 48 1026.3
20220927063031 59 275 3.0 9.0 0.00 0.00 0.00 47 1026.2
20220927062529 59 257 3.0 9.0 0.00 0.00 0.00 48 1026.3
20220927062032 59 265 3.0 9.0 0.00 0.00 0.00 48 1026.3
20220927061541 60 271 4.0 10.0 0.00 0.00 0.00 48 1026.3
20220927061028 60 265 5.0 10.0 0.00 0.00 0.00 48 1026.3
20220927060526 60 286 4.0 11.0 0.00 0.00 0.00 48 1026.3
20220927060032 60 272 5.0 11.0 0.00 0.00 0.00 48 1026.2
20220927055526 60 262 5.0 9.0 0.00 0.00 0.00 48 1026.4
20220927055028 60 267 4.0 9.0 0.00 0.00 0.00 47 1026.3
20220927054551 60 250 5.0 9.0 0.00 0.00 0.00 46 1026.4
20220927054026 60 243 4.0 9.0 0.00 0.00 0.00 46 1026.3
20220927053526 61 285 3.0 8.0 0.00 0.00 0.00 47 1026.3
20220927053031 61 268 4.0 8.0 0.00 0.00 0.00 46 1026.3
20220927052526 61 243 4.0 7.0 0.00 0.00 0.00 47 1026.3
20220927052032 61 243 3.0 8.0 0.00 0.00 0.00 47 1026.4
20220927051534 61 259 3.0 8.0 0.00 0.00 0.00 47 1026.4
20220927051027 61 249 4.0 8.0 0.00 0.00 0.00 47 1026.3
20220927050535 61 255 4.0 8.0 0.00 0.00 0.00 48 1026.4
20220927050055 61 263 3.0 8.0 0.00 0.00 0.00 48 1026.3
20220927045535 61 248 4.0 8.0 0.00 0.00 0.00 48 1026.2
20220927045027 61 259 3.0 8.0 0.00 0.00 0.00 48 1026.2
20220927044534 62 247 3.0 8.0 0.00 0.00 0.00 48 1026.2
20220927044027 62 258 5.0 8.0 0.00 0.00 0.00 47 1026.2
20220927043528 62 298 4.0 8.0 0.00 0.00 0.00 47 1026.2
20220927043041 62 241 3.0 7.0 0.00 0.00 0.00 47 1026.2
20220927042529 62 247 3.0 6.0 0.00 0.00 0.00 47 1026.1
20220927042027 62 275 2.0 6.0 0.00 0.00 0.00 47 1026.1
20220927041538 63 281 3.0 6.0 0.00 0.00 0.00 47 1026.1
20220927041026 63 268 2.0 4.0 0.00 0.00 0.00 47 1026.0
20220927040527 63 281 2.0 6.0 0.00 0.00 0.00 47 1025.9
20220927040037 62 286 2.0 6.0 0.00 0.00 0.00 48 1025.7
20220927035532 62 259 2.0 6.0 0.00 0.00 0.00 48 1025.8
20220927035033 62 254 2.0 6.0 0.00 0.00 0.00 49 1025.7
20220927034535 62 258 2.0 6.0 0.00 0.00 0.00 49 1025.7
20220927034026 62 250 3.0 6.0 0.00 0.00 0.00 49 1025.8
20220927033530 62 265 2.0 6.0 0.00 0.00 0.00 49 1025.8
20220927033041 63 260 2.0 4.0 0.00 0.00 0.00 50 1025.7
20220927032528 62 269 1.0 4.0 0.00 0.00 0.00 50 1025.7
20220927032028 62 269 2.0 4.0 0.00 0.00 0.00 50 1025.6
20220927031544 62 269 2.0 4.0 0.00 0.00 0.00 51 1025.6
20220927031030 62 263 2.0 4.0 0.00 0.00 0.00 51 1025.2
20220927030528 63 262 1.0 3.0 0.00 0.00 0.00 52 1025.1
20220927030045 63 267 0.0 3.0 0.00 0.00 0.00 52 1025.0
20220927025532 63 0 1.0 4.0 0.00 0.00 0.00 52 1024.9
20220927025028 63 0 1.0 4.0 0.00 0.00 0.00 53 1024.9
20220927024531 63 277 1.0 3.0 0.00 0.00 0.00 54 1024.8
20220927024027 64 284 1.0 2.0 0.00 0.00 0.00 55 1024.9
20220927023528 64 0 0.0 2.0 0.00 0.00 0.00 57 1024.7
20220927023057 64 296 0.0 1.0 0.00 0.00 0.00 57 1024.7
20220927022528 65 0 0.0 1.0 0.00 0.00 0.00 56 1024.6
20220927022028 65 296 0.0 1.0 0.00 0.00 0.00 57 1024.5
20220927021551 65 0 0.0 2.0 0.00 0.00 0.00 55 1024.4
20220927021028 65 296 1.0 2.0 0.00 0.00 0.00 55 1024.4
20220927020528 66 296 0.0 2.0 0.00 0.00 0.00 55 1024.2
20220927020046 66 296 0.0 2.0 0.00 0.00 0.00 56 1024.2
20220927015530 67 344 0.0 6.0 0.00 0.00 0.00 56 1024.0
20220927015028 67 344 1.0 6.0 0.00 0.00 0.00 57 1024.0
20220927014548 68 76 0.0 0.0 0.00 0.00 0.00 49 1023.8
20220927014032 69 0 0.0 0.0 0.00 0.00 0.00 49 1023.8
20220927013527 69 0 0.0 0.0 0.00 0.00 0.00 48 1023.7
20220927013044 70 0 0.0 0.0 0.00 0.00 0.00 47 1023.8
20220927012528 70 0 0.0 0.0 0.00 0.00 0.00 44 1023.7
20220927012030 71 0 0.0 0.0 0.00 0.00 0.00 43 1023.6
20220927011538 71 0 0.0 0.0 0.00 0.00 0.00 43 1023.5
20220927011028 72 0 0.0 0.0 0.00 0.00 0.00 43 1023.5
20220927010536 72 0 0.0 0.0 0.00 0.00 0.00 39 1023.3
20220927010040 73 0 0.0 0.0 0.00 0.00 0.00 38 1023.4
20220927005528 73 0 0.0 0.0 0.00 0.00 0.00 39 1023.4
20220927005029 73 0 0.0 1.0 0.00 0.00 0.00 38 1023.2
20220927004537 74 0 0.0 1.0 0.00 0.00 0.00 37 1023.1
20220927004033 74 0 0.0 1.0 0.00 0.00 0.00 36 1023.1
20220927003531 75 0 0.0 1.0 0.00 0.00 0.00 35 1023.0
20220927003031 75 0 0.0 1.0 0.00 0.00 0.00 34 1023.0
20220927002530 76 0 0.0 1.0 0.00 0.00 0.00 32 1023.0
20220927002028 76 0 0.0 1.0 0.00 0.00 0.00 32 1023.1
20220927001540 76 0 0.0 2.0 0.00 0.00 0.00 31 1022.9
20220927001029 76 147 0.0 4.0 0.00 0.00 0.00 31 1023.0
20220927000527 77 0 0.0 4.0 0.00 0.00 0.00 31 1023.0
20220927000040 77 0 0.0 3.0 0.00 0.00 0.00 30 1023.0
20220926235529 77 180 0.0 3.0 0.00 0.00 0.00 30 1023.0
20220926235028 77 161 0.0 3.0 0.00 0.00 0.00 30 1022.9
20220926234537 77 144 0.0 3.0 0.00 0.00 0.00 29 1022.9
20220926234025 78 196 1.0 3.0 0.00 0.00 0.00 28 1023.0
20220926233530 78 205 1.0 3.0 0.00 0.00 0.00 29 1023.0
20220926233030 78 0 0.0 4.0 0.00 0.00 0.00 28 1023.0
20220926232529 78 0 0.0 4.0 0.00 0.00 0.00 28 1022.8
20220926232026 79 78 0.0 3.0 0.00 0.00 0.00 28 1022.8
20220926231535 79 136 0.0 4.0 0.00 0.00 0.00 26 1022.8
20220926231025 79 109 1.0 4.0 0.00 0.00 0.00 29 1023.0
20220926230528 79 0 0.0 3.0 0.00 0.00 0.00 27 1023.0
20220926230035 79 194 1.0 4.0 0.00 0.00 0.00 27 1022.9
20220926225528 79 184 0.0 4.0 0.00 0.00 0.00 27 1022.9
20220926225028 79 166 1.0 4.0 0.00 0.00 0.00 28 1023.0
20220926224532 79 167 0.0 5.0 0.00 0.00 0.00 27 1023.1
20220926224027 79 180 2.0 5.0 0.00 0.00 0.00 27 1023.2
20220926223528 79 201 1.0 5.0 0.00 0.00 0.00 26 1023.0
20220926223040 80 215 1.0 4.0 0.00 0.00 0.00 27 1023.2
20220926222529 81 81 1.0 4.0 0.00 0.00 0.00 26 1023.1
20220926222029 81 0 2.0 4.0 0.00 0.00 0.00 27 1023.2
20220926221538 82 192 1.0 4.0 0.00 0.00 0.00 26 1023.2
20220926221034 82 0 1.0 3.0 0.00 0.00 0.00 25 1023.3
20220926220544 82 188 1.0 4.0 0.00 0.00 0.00 26 1023.2
20220926220105 82 164 1.0 4.0 0.00 0.00 0.00 25 1023.2
20220926215529 82 210 2.0 4.0 0.00 0.00 0.00 24 1023.2
20220926215028 83 0 0.0 5.0 0.00 0.00 0.00 26 1023.3
20220926214543 83 194 2.0 5.0 0.00 0.00 0.00 27 1023.2
20220926214028 83 165 2.0 5.0 0.00 0.00 0.00 27 1023.4